EW3232 Weather Reports


Display with metric or nautical units.
time (UTC)temp
F
wind
direction
speed
MPH
gust
MPH
rain 1hr
in
rain 24hr
in
rain mn
in
humidity
%
barometer
mb
20210305073733 43 15 0.0 1.0 0.00 0.00 0.00 94 1017.9
20210305073447 42 15 0.0 1.0 0.00 0.00 0.00 94 1017.9
20210305073201 42 10 0.0 1.0 0.00 0.00 0.00 94 1017.9
20210305072845 41 10 0.0 0.0 0.00 0.00 0.00 94 1017.9
20210305072815 41 10 0.0 0.0 0.00 0.00 0.00 94 1017.9
20210305072538 41 9 0.0 2.0 0.00 0.00 0.00 94 1017.9
20210305072052 41 9 0.0 2.0 0.00 0.00 0.00 94 1017.9
20210305071629 41 9 0.0 2.0 0.00 0.00 0.00 94 1017.9
20210305071342 41 9 1.0 1.0 0.00 0.00 0.00 94 1017.9
20210305071131 40 9 1.0 2.0 0.00 0.00 0.00 94 1017.9
20210305070607 40 9 0.0 3.0 0.00 0.00 0.00 94 1017.9
20210305070301 40 8 1.0 4.0 0.00 0.00 0.00 95 1017.9
20210305070127 40 322 2.0 4.0 0.00 0.00 0.00 95 1017.8
20210305070118 40 322 2.0 4.0 0.00 0.00 0.00 95 1018.4
20210305065918 40 321 3.0 4.0 0.00 0.00 0.00 95 1017.9
20210305065814 40 333 3.0 3.0 0.00 0.00 0.00 95 1017.8
20210305065544 39 337 3.0 3.0 0.00 0.00 0.00 95 1017.9
20210305065040 39 351 0.0 2.0 0.00 0.00 0.00 95 1017.9
20210305064650 39 350 2.0 3.0 0.00 0.00 0.00 94 1017.9
20210305064355 39 343 2.0 3.0 0.00 0.00 0.00 94 1017.9
20210305064121 39 332 2.0 3.0 0.00 0.00 0.00 94 1017.9
20210305063850 39 332 2.0 4.0 0.00 0.00 0.00 94 1017.9
20210305063405 39 313 2.0 4.0 0.00 0.00 0.00 95 1017.8
20210305063159 39 313 3.0 3.0 0.00 0.00 0.00 95 1017.8
20210305063058 39 327 3.0 3.0 0.00 0.00 0.00 94 1017.8
20210305062954 39 353 0.0 0.0 0.00 0.00 0.00 94 1017.9
20210305062710 39 8 0.0 0.0 0.00 0.00 0.00 94 1017.8
20210305062037 39 7 0.0 0.0 0.00 0.00 0.00 94 1017.8
20210305061639 39 7 0.0 0.0 0.00 0.00 0.00 94 1018.4
20210305061539 39 7 0.0 0.0 0.00 0.00 0.00 94 1017.9
20210305061257 39 7 0.0 1.0 0.00 0.00 0.00 94 1017.8
20210305061025 39 360 0.0 2.0 0.00 0.00 0.00 94 1017.8
20210305060738 39 360 0.0 2.0 0.00 0.00 0.00 94 1017.8
20210305060446 40 359 1.0 3.0 0.00 0.00 0.00 94 1017.8
20210305060112 40 351 1.0 3.0 0.00 0.00 0.00 95 1017.7
20210305055929 40 351 1.0 3.0 0.00 0.00 0.00 94 1017.8
20210305055857 40 357 2.0 3.0 0.00 0.00 0.00 94 1017.8
20210305055431 40 12 2.0 2.0 0.00 0.00 0.00 94 1017.8
20210305054911 40 13 0.0 2.0 0.00 0.00 0.00 94 1017.7
20210305054642 40 13 0.0 3.0 0.00 0.00 0.00 94 1018.3
20210305054606 40 13 0.0 3.0 0.00 0.00 0.00 94 1017.8
20210305054119 40 349 1.0 4.0 0.00 0.00 0.00 94 1017.8
20210305053609 40 323 2.0 4.0 0.00 0.00 0.00 94 1017.8
20210305053334 40 318 3.0 3.0 0.00 0.00 0.00 94 1017.7
20210305053124 40 318 1.0 3.0 0.00 0.00 0.00 94 1018.2
20210305053047 40 318 1.0 3.0 0.00 0.00 0.00 94 1017.6
20210305052841 40 318 3.0 3.0 0.00 0.00 0.00 94 1017.6
20210305052754 40 349 2.0 3.0 0.00 0.00 0.00 94 1017.7
20210305052547 40 31 0.0 1.0 0.00 0.00 0.00 94 1017.6
20210305051855 40 31 0.0 1.0 0.00 0.00 0.00 94 1017.7
20210305051629 40 32 0.0 1.0 0.00 0.00 0.00 94 1018.2
20210305051553 40 32 0.0 1.0 0.00 0.00 0.00 94 1017.7
20210305051317 40 32 0.0 1.0 0.00 0.00 0.00 94 1017.6
20210305051044 41 31 0.0 1.0 0.00 0.00 0.00 94 1017.6
20210305050750 40 31 1.0 2.0 0.00 0.00 0.00 94 1017.6
20210305050519 40 18 1.0 2.0 0.00 0.00 0.00 94 1017.6
20210305050206 40 16 1.0 2.0 0.00 0.00 0.00 94 1017.6
20210305045939 40 26 1.0 2.0 0.00 0.00 0.00 94 1017.6
20210305045813 40 355 0.0 2.0 0.00 0.00 0.00 94 1017.6
20210305045628 40 355 0.0 2.0 0.00 0.00 0.00 94 1017.6
20210305045123 40 339 0.0 3.0 0.00 0.00 0.00 94 1017.6
20210305044418 40 328 1.0 3.0 0.00 0.00 0.00 94 1017.6
20210305043931 41 326 2.0 3.0 0.00 0.00 0.00 94 1017.6
20210305043647 41 326 2.0 3.0 0.00 0.00 0.00 94 1017.6
20210305043405 41 326 2.0 4.0 0.00 0.00 0.00 94 1017.6
20210305043140 41 323 2.0 4.0 0.00 0.00 0.00 95 1017.6
20210305043030 41 323 2.0 4.0 0.00 0.00 0.00 95 1017.6
20210305042939 40 325 0.0 0.0 0.00 0.00 0.00 94 1017.6
20210305042501 40 335 0.0 0.0 0.00 0.00 0.00 95 1017.6
20210305041841 40 327 0.0 0.0 0.00 0.00 0.00 94 1017.6
20210305041326 40 348 0.0 0.0 0.00 0.00 0.00 94 1017.7
20210305040611 40 340 0.0 0.0 0.00 0.00 0.00 94 1017.6
20210305040519 40 340 0.0 0.0 0.00 0.00 0.00 94 1017.6
20210305040258 40 334 0.0 0.0 0.00 0.00 0.00 94 1017.7
20210305040154 40 351 0.0 0.0 0.00 0.00 0.00 95 1017.6
20210305040058 40 358 0.0 0.0 0.00 0.00 0.00 94 1017.7
20210305035952 40 358 0.0 0.0 0.00 0.00 0.00 94 1017.8
20210305035608 41 358 0.0 0.0 0.00 0.00 0.00 94 1017.7
20210305034810 40 358 0.0 0.0 0.00 0.00 0.00 95 1017.7
20210305034415 40 358 0.0 0.0 0.00 0.00 0.00 95 1017.7
20210305033922 40 356 0.0 0.0 0.00 0.00 0.00 94 1017.7
20210305033651 40 357 0.0 0.0 0.00 0.00 0.00 94 1017.7
20210305033314 40 356 0.0 0.0 0.00 0.00 0.00 94 1017.6
20210305033114 40 356 0.0 0.0 0.00 0.00 0.00 94 1018.2
20210305033041 40 356 0.0 0.0 0.00 0.00 0.00 94 1017.7
20210305032759 41 351 0.0 0.0 0.00 0.00 0.00 94 1017.7
20210305032530 41 327 0.0 0.0 0.00 0.00 0.00 94 1017.7
20210305032350 41 325 0.0 0.0 0.00 0.00 0.00 94 1017.7
20210305032120 41 325 0.0 0.0 0.00 0.00 0.00 94 1017.7
20210305031719 41 325 0.0 1.0 0.00 0.00 0.00 94 1017.7
20210305031218 41 325 0.0 2.0 0.00 0.00 0.00 95 1017.7
20210305030941 41 325 1.0 2.0 0.00 0.00 0.00 94 1017.7
20210305030716 41 325 0.0 3.0 0.00 0.00 0.00 94 1017.7
20210305030442 41 325 1.0 4.0 0.00 0.00 0.00 94 1017.7
20210305030130 41 325 1.0 4.0 0.00 0.00 0.00 94 1017.9
20210305030026 41 349 2.0 4.0 0.00 0.00 0.00 94 1017.9
20210305025949 41 354 2.0 4.0 0.00 0.00 0.00 94 1017.9
20210305025540 41 346 2.0 2.0 0.00 0.00 0.00 94 1018.0
20210305024846 41 343 1.0 2.0 0.00 0.00 0.00 94 1018.0
20210305024612 41 341 1.0 2.0 0.00 0.00 0.00 94 1018.5
20210305024555 41 341 1.0 2.0 0.00 0.00 0.00 94 1018.0
20210305024313 41 341 2.0 3.0 0.00 0.00 0.00 94 1018.0
20210305024042 41 341 0.0 3.0 0.00 0.00 0.00 94 1018.1
20210305023757 41 341 1.0 3.0 0.00 0.00 0.00 94 1018.2
20210305023438 41 341 1.0 4.0 0.00 0.00 0.00 94 1018.2
20210305023141 41 326 1.0 4.0 0.00 0.00 0.00 94 1018.2
20210305022945 41 322 2.0 4.0 0.00 0.00 0.00 94 1018.3
20210305022842 41 318 2.0 4.0 0.00 0.00 0.00 94 1018.3
20210305022522 41 318 3.0 4.0 0.00 0.00 0.00 94 1018.4
20210305021949 41 327 2.0 3.0 0.00 0.00 0.00 94 1018.4
20210305021657 41 328 2.0 3.0 0.00 0.00 0.00 94 1018.4
20210305021400 41 331 2.0 3.0 0.00 0.00 0.00 94 1018.4
20210305021132 41 341 2.0 3.0 0.00 0.00 0.00 94 1018.5
20210305020708 41 358 2.0 2.0 0.00 0.00 0.00 94 1018.6
20210305020312 41 358 2.0 2.0 0.00 0.00 0.00 94 1018.6
20210305020150 41 358 0.0 2.0 0.00 0.00 0.00 94 1019.2
20210305020135 41 358 1.0 2.0 0.00 0.00 0.00 94 1018.7
20210305020031 41 351 1.0 2.0 0.00 0.01 0.00 94 1018.7
20210305015921 41 350 1.0 2.0 0.00 0.01 0.00 94 1018.7
20210305015842 41 344 0.0 4.0 0.00 0.01 0.00 94 1018.7
20210305015038 41 318 1.0 4.0 0.00 0.01 0.00 94 1018.7
20210305014631 41 316 3.0 4.0 0.00 0.01 0.00 94 1018.8
20210305014403 41 325 2.0 3.0 0.00 0.01 0.00 94 1018.8
20210305013924 41 3 2.0 2.0 0.00 0.01 0.00 94 1018.8
20210305013659 42 7 0.0 2.0 0.00 0.01 0.00 93 1018.8
20210305013439 42 8 0.0 2.0 0.00 0.01 0.00 93 1018.8
20210305013309 42 358 1.0 2.0 0.00 0.01 0.00 93 1018.8
20210305013023 42 338 1.0 2.0 0.00 0.01 0.00 93 1018.8
20210305012837 42 326 1.0 2.0 0.00 0.01 0.00 93 1018.9
20210305012634 42 325 2.0 2.0 0.00 0.01 0.00 93 1018.9
20210305012206 42 325 2.0 3.0 0.00 0.01 0.00 93 1018.9
20210305011539 42 19 1.0 3.0 0.00 0.01 0.00 93 1018.9
20210305011233 42 347 1.0 3.0 0.00 0.01 0.00 93 1019.0
20210305011023 42 340 1.0 3.0 0.00 0.01 0.00 93 1019.0
20210305010721 42 340 1.0 3.0 0.00 0.01 0.00 94 1019.0
20210305010451 42 340 2.0 3.0 0.00 0.01 0.00 93 1019.0
20210305010154 42 342 2.0 2.0 0.00 0.01 0.00 93 1019.0
20210305005915 42 329 1.0 4.0 0.00 0.01 0.00 93 1019.0
20210305005812 43 325 2.0 5.0 0.00 0.01 0.00 93 1019.1
20210305005526 43 331 2.0 5.0 0.00 0.01 0.00 93 1019.1
20210305005144 43 312 4.0 5.0 0.00 0.01 0.00 93 1019.1
20210305004906 43 29 3.0 4.0 0.00 0.01 0.00 93 1019.6
20210305004602 43 29 2.0 4.0 0.00 0.01 0.00 93 1019.1
20210305004301 43 320 3.0 4.0 0.00 0.01 0.00 93 1019.1
20210305003951 43 319 4.0 4.0 0.00 0.01 0.00 93 1019.1
20210305003610 43 319 3.0 4.0 0.00 0.01 0.00 93 1019.1
20210305003300 43 320 3.0 3.0 0.00 0.01 0.00 93 1019.2
20210305003052 43 328 0.0 0.0 0.00 0.01 0.00 93 1019.1
20210305002844 43 327 0.0 0.0 0.00 0.01 0.00 93 1019.1
20210305002811 43 338 0.0 0.0 0.00 0.01 0.00 92 1019.2
20210305002547 43 358 0.0 0.0 0.00 0.01 0.00 93 1019.1
20210305001932 43 350 0.0 0.0 0.00 0.01 0.00 92 1019.1
20210305001607 44 353 0.0 0.0 0.00 0.01 0.00 92 1019.7
20210305001522 44 353 0.0 0.0 0.00 0.01 0.00 92 1019.2
20210305001305 44 353 0.0 1.0 0.00 0.01 0.00 92 1019.2
20210305000957 44 353 0.0 2.0 0.00 0.01 0.00 92 1019.2
20210305000742 44 351 0.0 3.0 0.00 0.01 0.00 92 1019.2
20210305000647 44 331 1.0 3.0 0.00 0.01 0.00 92 1019.2
20210304235934 45 339 2.0 4.0 0.00 0.01 0.00 92 1019.4
20210304235808 45 322 4.0 4.0 0.00 0.01 0.00 92 1019.4
20210304235034 45 318 4.0 4.0 0.00 0.01 0.00 92 1019.4
20210304234512 45 316 3.0 4.0 0.00 0.01 0.00 93 1019.4
20210304234234 45 315 3.0 3.0 0.00 0.01 0.00 92 1019.4
20210304233921 45 317 3.0 3.0 0.00 0.01 0.00 92 1019.5
20210304233616 45 317 2.0 3.0 0.00 0.01 0.00 92 1019.6
20210304233423 45 317 2.0 3.0 0.00 0.01 0.00 92 1019.6
20210304233229 45 317 2.0 3.0 0.00 0.01 0.00 92 1019.6
20210304233133 46 317 2.0 3.0 0.00 0.01 0.00 92 1019.6
20210304232945 46 317 2.0 3.0 0.00 0.01 0.00 92 1019.6
20210304232638 46 316 3.0 4.0 0.00 0.01 0.00 93 1019.7
20210304231918 46 314 3.0 4.0 0.00 0.01 0.00 93 1019.7
20210304231622 46 313 2.0 4.0 0.00 0.01 0.00 92 1020.2
20210304231547 46 313 2.0 4.0 0.00 0.01 0.00 92 1019.8
20210304231224 46 316 2.0 4.0 0.00 0.01 0.00 92 1019.8
20210304231022 46 320 4.0 4.0 0.00 0.01 0.00 93 1019.8
20210304230554 46 323 3.0 3.0 0.00 0.01 0.00 93 1019.8
20210304230351 46 330 3.0 3.0 0.00 0.01 0.00 93 1019.8
20210304230211 46 327 1.0 3.0 0.00 0.01 0.00 92 1020.2
20210304230149 46 327 3.0 3.0 0.00 0.01 0.00 92 1019.8
20210304230108 47 327 2.0 3.0 0.00 0.01 0.01 92 1019.8
20210304225923 47 336 3.0 3.0 0.00 0.01 0.01 92 1019.9
20210304225839 47 336 2.0 3.0 0.00 0.01 0.01 92 1019.9
20210304225118 47 335 2.0 3.0 0.00 0.01 0.01 92 1019.9
20210304224627 47 335 2.0 3.0 0.00 0.01 0.01 92 1019.9
20210304224349 47 351 2.0 3.0 0.00 0.01 0.01 92 1019.9
20210304224113 47 355 2.0 3.0 0.00 0.01 0.01 93 1020.0
20210304223604 47 356 2.0 3.0 0.00 0.01 0.01 93 1020.0
20210304223215 47 360 2.0 2.0 0.00 0.01 0.01 92 1020.0
20210304223021 47 360 1.0 2.0 0.00 0.01 0.01 92 1020.0
20210304222828 47 360 0.0 0.0 0.00 0.01 0.01 92 1020.0
20210304222708 47 360 0.0 0.0 0.00 0.01 0.01 92 1020.0
20210304222258 47 360 0.0 0.0 0.00 0.01 0.01 92 1020.0
20210304221523 47 360 0.0 0.0 0.00 0.01 0.01 92 1020.0
20210304221521 47 360 0.0 0.0 0.00 0.01 0.01 92 1020.5
20210304221205 47 360 0.0 0.0 0.00 0.01 0.01 92 1020.0
20210304220933 47 360 0.0 0.0 0.00 0.01 0.01 92 1020.0
20210304220655 47 360 0.0 0.0 0.00 0.01 0.01 92 1020.0
20210304220351 47 360 0.0 0.0 0.00 0.01 0.01 92 1020.0
20210304220232 47 360 0.0 0.0 0.00 0.01 0.01 92 1020.0
20210304220137 47 360 0.0 1.0 0.00 0.01 0.01 92 1020.0
20210304215845 46 360 1.0 2.0 0.00 0.01 0.01 92 1020.0
20210304215142 46 360 1.0 2.0 0.00 0.01 0.01 93 1020.0
20210304214653 46 359 1.0 3.0 0.00 0.01 0.01 92 1020.5
20210304214608 46 359 2.0 3.0 0.00 0.01 0.01 92 1020.0
20210304214332 46 359 1.0 3.0 0.00 0.01 0.01 92 1020.0
20210304213654 46 34 1.0 2.0 0.00 0.01 0.01 92 1019.9
20210304213417 46 34 1.0 2.0 0.00 0.01 0.01 92 1019.9
20210304213156 46 34 1.0 2.0 0.00 0.01 0.01 92 1020.0
20210304212942 46 36 2.0 2.0 0.00 0.01 0.01 92 1019.9
20210304212905 46 37 1.0 2.0 0.00 0.01 0.01 92 1019.9
20210304212429 46 37 1.0 2.0 0.00 0.01 0.01 92 1019.9
20210304211903 46 37 1.0 2.0 0.00 0.01 0.01 92 1019.9
20210304211751 45 37 1.0 2.0 0.00 0.01 0.01 92 1020.3
20210304211553 45 37 1.0 2.0 0.00 0.01 0.01 92 1019.9
20210304211328 45 37 0.0 1.0 0.00 0.01 0.01 92 1019.9
20210304211043 45 57 0.0 0.0 0.00 0.01 0.01 92 1019.8
20210304210814 45 57 0.0 0.0 0.00 0.01 0.01 92 1019.8
20210304210520 46 57 0.0 0.0 0.00 0.01 0.01 92 1019.8
20210304210204 45 57 0.0 0.0 0.00 0.01 0.01 91 1019.7
20210304205942 46 57 0.0 0.0 0.00 0.01 0.01 91 1019.8
20210304205850 46 57 0.0 0.0 0.00 0.01 0.01 91 1019.7
20210304205807 46 57 0.0 0.0 0.00 0.01 0.01 91 1019.7
20210304205051 46 57 0.0 0.0 0.00 0.01 0.01 91 1019.7
20210304204622 46 57 0.0 0.0 0.00 0.01 0.01 91 1019.6
20210304204346 47 57 0.0 0.0 0.00 0.01 0.01 90 1019.6
20210304204112 47 57 0.0 0.0 0.00 0.01 0.01 90 1019.6
20210304203738 47 57 0.0 0.0 0.00 0.01 0.01 90 1019.6
20210304203613 47 57 0.0 0.0 0.00 0.01 0.01 90 1019.7
20210304203453 47 57 0.0 0.0 0.00 0.01 0.01 90 1020.0
20210304203427 47 57 0.0 0.0 0.00 0.01 0.01 90 1019.6
20210304203235 47 57 0.0 0.0 0.00 0.01 0.01 90 1019.6
20210304203159 48 57 0.0 0.0 0.00 0.01 0.01 90 1019.7
20210304202946 48 57 0.0 0.0 0.00 0.01 0.01 90 1019.6
20210304202712 48 57 0.0 0.0 0.00 0.01 0.01 89 1019.7
20210304201755 48 57 0.0 0.0 0.00 0.01 0.01 89 1019.7
20210304201227 48 57 0.0 0.0 0.00 0.01 0.01 89 1019.7
20210304200944 48 57 0.0 0.0 0.00 0.01 0.01 89 1019.7
20210304200707 49 57 0.0 0.0 0.00 0.01 0.01 89 1019.7
20210304200510 49 57 0.0 0.0 0.00 0.01 0.01 89 1019.7
20210304200343 49 57 0.0 0.0 0.00 0.01 0.01 89 1019.8
20210304200148 49 57 0.0 0.0 0.00 0.01 0.01 89 1019.8
20210304200109 49 57 0.0 0.0 0.00 0.01 0.01 89 1019.9
20210304195941 49 57 0.0 0.0 0.00 0.01 0.01 88 1019.9
20210304194931 49 57 0.0 0.0 0.00 0.01 0.01 88 1019.9
20210304194639 49 57 0.0 0.0 0.00 0.01 0.01 88 1020.3
20210304194602 49 57 0.0 0.0 0.00 0.01 0.01 88 1019.9
20210304194315 49 57 0.0 0.0 0.00 0.01 0.01 88 1020.0
20210304193953 49 57 0.0 0.0 0.00 0.01 0.01 88 1020.0
20210304193802 49 57 0.0 0.0 0.00 0.01 0.01 88 1019.9
20210304193438 49 74 0.0 0.0 0.00 0.01 0.01 88 1019.9
20210304193152 49 79 0.0 0.0 0.00 0.01 0.01 88 1019.9
20210304193101 49 85 0.0 0.0 0.00 0.01 0.01 89 1020.0
20210304192932 49 86 0.0 0.0 0.00 0.01 0.01 89 1020.0
20210304192717 49 86 0.0 0.0 0.00 0.01 0.01 89 1020.0
20210304192044 49 86 0.0 0.0 0.00 0.01 0.01 89 1020.0
20210304191609 49 86 0.0 0.0 0.00 0.01 0.01 89 1020.0
20210304191340 49 86 0.0 0.0 0.00 0.01 0.01 89 1020.0
20210304191031 49 86 0.0 0.0 0.00 0.01 0.01 89 1020.0
20210304190832 49 86 0.0 0.0 0.00 0.01 0.01 89 1020.0
20210304190438 49 86 0.0 0.0 0.00 0.01 0.01 89 1020.0
20210304190238 49 86 0.0 0.0 0.00 0.01 0.01 89 1020.0
20210304185957 49 86 0.0 0.0 0.00 0.01 0.01 90 1020.0
20210304185902 49 86 0.0 0.0 0.00 0.01 0.01 90 1020.0
20210304185725 49 86 0.0 0.0 0.00 0.01 0.01 90 1020.0
20210304185144 49 86 0.0 0.0 0.00 0.01 0.01 90 1020.0
20210304184441 49 86 0.0 3.0 0.00 0.01 0.01 90 1020.0
20210304183928 49 86 1.0 3.0 0.00 0.01 0.01 90 1020.0
20210304183645 49 86 1.0 3.0 0.00 0.01 0.01 90 1020.0
20210304183406 49 83 1.0 3.0 0.00 0.01 0.01 90 1020.1
20210304183120 49 93 1.0 3.0 0.00 0.01 0.01 90 1020.0
20210304182916 49 121 2.0 3.0 0.00 0.01 0.01 90 1020.1
20210304182824 49 107 2.0 3.0 0.00 0.01 0.01 90 1020.1
20210304182734 49 94 2.0 4.0 0.00 0.01 0.01 90 1020.1
20210304182151 49 79 0.0 5.0 0.00 0.01 0.01 90 1020.1
20210304181548 49 124 2.0 5.0 0.00 0.01 0.01 90 1020.5
20210304181539 49 124 2.0 5.0 0.00 0.01 0.01 90 1020.1
20210304181240 49 143 3.0 4.0 0.00 0.01 0.01 90 1020.1
20210304180941 49 129 3.0 4.0 0.00 0.01 0.01 90 1020.1
20210304180732 49 121 1.0 4.0 0.00 0.01 0.01 90 1020.1
20210304180448 49 100 1.0 6.0 0.00 0.01 0.01 90 1020.1
20210304180319 49 114 3.0 6.0 0.00 0.01 0.01 90 1020.1
20210304180104 49 127 3.0 6.0 0.00 0.01 0.01 90 1020.1
20210304175828 50 125 5.0 5.0 0.00 0.01 0.01 90 1020.1
20210304175522 50 120 2.0 4.0 0.00 0.01 0.01 90 1020.2
20210304174952 50 113 2.0 4.0 0.00 0.01 0.01 89 1020.2
20210304174621 50 109 0.0 5.0 0.00 0.01 0.01 89 1020.1
20210304174346 50 124 3.0 5.0 0.00 0.01 0.01 89 1020.1
20210304174117 50 152 3.0 5.0 0.00 0.01 0.01 89 1020.1
20210304173602 50 108 1.0 4.0 0.00 0.01 0.01 88 1020.1
20210304173324 50 103 4.0 4.0 0.00 0.01 0.01 88 1020.0
20210304173053 50 101 2.0 5.0 0.00 0.01 0.01 88 1020.4
20210304173033 50 101 1.0 5.0 0.00 0.01 0.01 88 1020.0
20210304172828 50 102 4.0 5.0 0.00 0.01 0.01 88 1020.0
20210304172805 50 105 2.0 5.0 0.00 0.01 0.01 87 1020.1
20210304172613 50 106 2.0 5.0 0.00 0.01 0.01 87 1020.1
20210304172224 50 124 2.0 5.0 0.00 0.01 0.01 87 1020.1
20210304171713 50 124 3.0 5.0 0.00 0.01 0.01 87 1020.1
20210304171205 50 103 4.0 5.0 0.00 0.01 0.01 87 1020.2
20210304171152 50 110 4.0 5.0 0.00 0.01 0.01 87 1020.2
20210304170811 51 86 3.0 5.0 0.00 0.01 0.01 86 1020.2
20210304170703 51 82 3.0 5.0 0.00 0.01 0.01 86 1020.2
20210304170442 51 94 4.0 6.0 0.00 0.01 0.01 86 1020.2
20210304170330 51 102 4.0 6.0 0.00 0.01 0.01 86 1020.2
20210304170106 51 98 4.0 5.0 0.00 0.01 0.01 85 1020.3
20210304165947 51 107 4.0 6.0 0.00 0.01 0.01 85 1020.3
20210304165325 51 129 3.0 6.0 0.00 0.01 0.01 85 1020.3
20210304164613 51 110 4.0 6.0 0.00 0.01 0.01 85 1020.2
20210304164336 51 90 5.0 5.0 0.00 0.01 0.01 85 1020.2
20210304164127 51 81 1.0 5.0 0.00 0.01 0.01 85 1020.3
20210304163612 51 100 4.0 6.0 0.00 0.01 0.01 85 1020.3
20210304163403 51 69 3.0 7.0 0.00 0.01 0.01 85 1020.3
20210304163327 51 114 5.0 7.0 0.00 0.01 0.01 85 1020.3
20210304163219 52 107 6.0 7.0 0.00 0.01 0.01 84 1020.3
20210304162611 52 100 2.0 7.0 0.00 0.01 0.01 84 1020.2
20210304161642 52 97 5.0 7.0 0.00 0.01 0.01 84 1020.2
20210304161218 52 114 3.0 7.0 0.00 0.01 0.01 84 1020.3
20210304161052 52 70 5.0 7.0 0.00 0.01 0.01 84 1020.3
20210304160710 52 68 3.0 7.0 0.00 0.01 0.01 84 1020.3
20210304160430 52 98 2.0 8.0 0.00 0.01 0.01 83 1020.3
20210304160345 52 67 4.0 8.0 0.00 0.01 0.01 83 1020.3
20210304160216 52 81 4.0 8.0 0.00 0.01 0.01 83 1020.3
20210304160123 52 57 5.0 6.0 0.00 0.01 0.01 83 1020.4
20210304155915 53 67 4.0 7.0 0.00 0.01 0.01 83 1020.4
20210304155428 53 101 6.0 7.0 0.00 0.01 0.01 83 1020.4
20210304155021 53 98 3.0 7.0 0.00 0.01 0.01 83 1020.4
20210304154347 53 105 2.0 7.0 0.00 0.01 0.01 83 1020.4
20210304154031 53 95 5.0 7.0 0.00 0.01 0.01 83 1020.5
20210304153812 53 93 3.0 7.0 0.00 0.01 0.01 83 1020.5
20210304153524 53 81 7.0 7.0 0.00 0.01 0.01 82 1020.5
20210304153308 53 112 3.0 7.0 0.00 0.01 0.01 82 1020.9
20210304153304 53 112 2.0 7.0 0.00 0.01 0.01 82 1020.5
20210304153226 53 100 4.0 8.0 0.00 0.01 0.01 82 1020.5
20210304153025 53 129 6.0 8.0 0.00 0.01 0.01 81 1020.5
20210304152944 54 113 6.0 8.0 0.00 0.01 0.01 80 1020.5
20210304152651 54 70 4.0 5.0 0.00 0.01 0.01 76 1020.5
20210304151522 54 84 3.0 4.0 0.00 0.01 0.01 75 1020.9
20210304151235 54 87 4.0 4.0 0.00 0.01 0.01 75 1020.6
20210304151010 54 75 4.0 4.0 0.00 0.01 0.01 75 1020.6
20210304150827 54 75 3.0 4.0 0.00 0.01 0.01 75 1020.7
20210304150445 54 91 4.0 4.0 0.00 0.01 0.01 76 1020.7
20210304150341 54 77 2.0 4.0 0.00 0.01 0.01 76 1020.8
20210304150146 54 71 1.0 5.0 0.00 0.01 0.01 76 1020.8
20210304150056 54 74 2.0 5.0 0.00 0.01 0.01 75 1020.8
20210304145902 54 64 1.0 5.0 0.00 0.01 0.01 76 1020.8
20210304145217 54 52 4.0 5.0 0.00 0.01 0.01 75 1020.8
20210304144752 54 76 2.0 4.0 0.00 0.01 0.01 75 1021.3
20210304144629 54 71 3.0 4.0 0.00 0.01 0.01 75 1020.9
20210304144126 54 107 2.0 6.0 0.00 0.01 0.01 74 1020.9
20210304143607 54 102 2.0 6.0 0.00 0.01 0.01 75 1020.9
20210304143337 54 58 4.0 6.0 0.00 0.01 0.01 75 1021.0
20210304143132 55 60 3.0 6.0 0.00 0.01 0.01 74 1021.4
20210304143046 55 60 3.0 6.0 0.00 0.01 0.01 74 1021.0
20210304142928 55 62 4.0 6.0 0.00 0.01 0.01 75 1021.0
20210304142724 55 128 2.0 6.0 0.00 0.01 0.01 74 1021.0
20210304142346 55 157 5.0 6.0 0.00 0.01 0.01 76 1021.1
20210304141915 54 97 3.0 6.0 0.00 0.01 0.01 75 1021.1
20210304141702 54 133 4.0 6.0 0.00 0.01 0.01 76 1021.1
20210304141428 54 120 2.0 6.0 0.00 0.01 0.01 75 1021.1
20210304140917 54 56 5.0 6.0 0.00 0.01 0.01 73 1021.2
20210304140738 55 58 4.0 6.0 0.00 0.01 0.01 74 1021.2
20210304140455 54 109 0.0 4.0 0.00 0.01 0.01 74 1021.2
20210304140213 54 119 1.0 4.0 0.00 0.01 0.01 75 1021.3
20210304135920 54 65 1.0 4.0 0.00 0.01 0.01 74 1021.2
20210304135723 54 69 0.0 5.0 0.00 0.01 0.01 75 1021.3
20210304135531 54 105 2.0 5.0 0.00 0.01 0.01 74 1021.4
20210304134913 54 92 3.0 6.0 0.00 0.01 0.01 76 1021.4
20210304134617 54 87 0.0 6.0 0.00 0.01 0.01 75 1021.4
20210304134351 54 83 2.0 6.0 0.00 0.01 0.01 75 1021.5
20210304134111 54 124 3.0 6.0 0.00 0.01 0.01 75 1021.5
20210304133612 54 110 5.0 6.0 0.00 0.01 0.01 76 1021.6
20210304133333 54 107 0.0 5.0 0.00 0.01 0.01 75 1021.6
20210304133117 54 108 2.0 5.0 0.00 0.01 0.01 75 1022.0
20210304133115 54 108 2.0 5.0 0.00 0.01 0.01 75 1021.6
20210304132904 54 113 5.0 8.0 0.00 0.01 0.01 75 1021.8
20210304132839 54 93 4.0 8.0 0.00 0.01 0.01 75 1021.8
20210304132600 54 87 2.0 8.0 0.00 0.01 0.01 74 1021.9
20210304131749 55 109 7.0 8.0 0.00 0.01 0.01 75 1021.9
20210304131225 54 143 2.0 5.0 0.00 0.01 0.01 76 1022.0
20210304130955 54 141 2.0 7.0 0.00 0.01 0.01 75 1022.0
20210304130737 54 133 3.0 7.0 0.00 0.01 0.01 76 1022.0
20210304130458 53 178 2.0 7.0 0.00 0.01 0.01 77 1022.1
20210304130155 53 182 7.0 7.0 0.00 0.01 0.01 77 1022.1
20210304125913 54 102 3.0 5.0 0.00 0.01 0.01 76 1022.2
20210304125727 54 154 2.0 6.0 0.00 0.01 0.01 77 1022.2
20210304125339 54 71 3.0 8.0 0.00 0.01 0.01 78 1022.3
20210304124843 54 71 2.0 8.0 0.00 0.01 0.01 78 1022.4
20210304124635 54 131 4.0 9.0 0.00 0.01 0.01 76 1022.8
20210304124544 54 131 3.0 9.0 0.00 0.01 0.01 76 1022.4
20210304124258 54 145 2.0 9.0 0.00 0.01 0.01 78 1022.4
20210304123911 54 124 4.0 9.0 0.00 0.01 0.01 77 1022.4
20210304123639 54 151 3.0 10.0 0.00 0.01 0.01 77 1022.4
20210304123404 53 98 4.0 10.0 0.00 0.01 0.01 78 1022.6
20210304123147 54 98 5.0 10.0 0.00 0.01 0.01 77 1022.6
20210304123021 54 137 3.0 10.0 0.00 0.01 0.01 78 1022.6
20210304122538 54 115 4.0 11.0 0.00 0.01 0.01 78 1022.7
20210304121656 54 152 8.0 14.0 0.00 0.01 0.01 77 1022.8
20210304121425 54 154 7.0 14.0 0.00 0.01 0.01 75 1022.7
20210304120916 55 129 5.0 6.0 0.00 0.01 0.01 72 1022.7
20210304120656 55 71 2.0 6.0 0.00 0.01 0.01 69 1022.8
20210304120402 56 86 3.0 11.0 0.00 0.01 0.01 70 1022.8
20210304120256 56 114 3.0 11.0 0.00 0.01 0.01 72 1022.8
20210304120150 56 98 3.0 12.0 0.00 0.01 0.01 71 1022.8
20210304120054 55 174 6.0 12.0 0.00 0.01 0.01 72 1022.9
20210304115536 55 191 8.0 12.0 0.00 0.01 0.01 72 1022.9
20210304114822 55 143 4.0 10.0 0.00 0.01 0.01 72 1023.0
20210304114651 55 133 6.0 10.0 0.00 0.01 0.01 71 1023.4
20210304114545 55 133 8.0 10.0 0.00 0.01 0.01 71 1023.0
20210304114306 55 126 8.0 8.0 0.00 0.01 0.01 70 1023.0
20210304114137 55 66 8.0 8.0 0.00 0.01 0.01 71 1023.0
20210304113625 55 152 8.0 9.0 0.00 0.01 0.01 70 1023.0
20210304113355 55 149 3.0 12.0 0.00 0.01 0.01 69 1023.1
20210304113205 55 182 5.0 12.0 0.00 0.01 0.01 71 1023.1
20210304113037 55 119 5.0 12.0 0.00 0.01 0.01 70 1023.1
20210304112937 55 138 8.0 12.0 0.00 0.01 0.01 71 1023.1
20210304112532 55 65 5.0 7.0 0.00 0.01 0.01 72 1023.2
20210304111849 54 131 6.0 7.0 0.00 0.01 0.01 75 1023.2
20210304111528 54 104 4.0 7.0 0.00 0.01 0.01 74 1023.7
20210304111227 54 90 0.0 5.0 0.00 0.01 0.01 74 1023.3
20210304110953 54 131 4.0 5.0 0.00 0.01 0.01 73 1023.3
20210304110727 54 97 1.0 4.0 0.00 0.01 0.01 75 1023.4
20210304110448 53 97 0.0 4.0 0.00 0.01 0.01 73 1023.4
20210304110402 54 118 2.0 4.0 0.00 0.01 0.01 73 1023.4
20210304110251 54 182 2.0 4.0 0.00 0.01 0.01 73 1023.4
20210304110032 54 105 1.0 4.0 0.00 0.01 0.01 72 1023.5
20210304105906 54 121 3.0 4.0 0.00 0.01 0.01 72 1023.5
20210304105032 54 89 2.0 5.0 0.00 0.01 0.01 74 1023.7
20210304104540 53 119 3.0 5.0 0.00 0.01 0.01 75 1023.7
20210304104253 54 95 4.0 5.0 0.00 0.01 0.01 74 1023.7
20210304103920 54 124 2.0 6.0 0.00 0.01 0.01 75 1023.7
20210304103741 54 132 3.0 6.0 0.00 0.01 0.01 74 1023.8
20210304103457 54 184 4.0 7.0 0.00 0.01 0.01 73 1023.8
20210304103212 54 128 2.0 7.0 0.00 0.01 0.01 73 1023.8
20210304102839 54 159 4.0 7.0 0.00 0.01 0.01 73 1023.8
20210304102729 54 126 5.0 7.0 0.00 0.01 0.01 73 1023.8
20210304102605 54 117 4.0 7.0 0.00 0.01 0.01 72 1023.8
20210304102048 54 169 4.0 7.0 0.00 0.01 0.01 72 1023.9
20210304101205 54 98 2.0 8.0 0.00 0.01 0.01 72 1023.9
20210304100935 54 145 3.0 6.0 0.00 0.01 0.01 73 1023.9
20210304100459 54 156 4.0 6.0 0.00 0.01 0.01 73 1023.9
20210304100207 54 152 2.0 6.0 0.00 0.01 0.01 72 1023.9
20210304095929 54 117 0.0 5.0 0.00 0.01 0.01 73 1023.9
20210304095752 54 151 1.0 4.0 0.00 0.01 0.01 74 1023.9
20210304095432 53 147 0.0 4.0 0.00 0.01 0.01 73 1023.9
20210304094902 53 126 1.0 2.0 0.00 0.01 0.01 73 1024.0
20210304094604 53 124 0.0 2.0 0.00 0.01 0.01 74 1024.5
20210304094537 53 124 0.0 2.0 0.00 0.01 0.01 74 1024.0
20210304094253 53 122 1.0 2.0 0.00 0.01 0.01 73 1024.0
20210304094026 53 116 0.0 2.0 0.00 0.01 0.01 75 1024.0
20210304093826 53 116 0.0 2.0 0.00 0.01 0.01 74 1024.0
20210304093526 53 118 0.0 2.0 0.00 0.01 0.01 74 1024.1
20210304093230 53 123 0.0 2.0 0.00 0.01 0.01 74 1024.1
20210304093040 52 263 2.0 4.0 0.00 0.01 0.01 75 1024.1
20210304092915 52 263 1.0 4.0 0.00 0.01 0.01 74 1024.2
20210304092811 53 275 3.0 3.0 0.00 0.01 0.01 75 1024.2
20210304092229 53 176 2.0 3.0 0.00 0.01 0.01 75 1024.2
20210304091202 52 83 0.0 3.0 0.00 0.01 0.01 78 1024.2
20210304090719 52 83 0.0 3.0 0.00 0.01 0.01 83 1024.2
20210304090445 52 106 0.0 1.0 0.00 0.01 0.01 84 1024.3
20210304090159 51 106 0.0 1.0 0.00 0.01 0.01 86 1024.3
20210304085850 51 191 0.0 2.0 0.00 0.01 0.01 88 1024.3
20210304085817 50 191 0.0 2.0 0.00 0.01 0.01 88 1024.3
20210304085706 49 191 0.0 2.0 0.00 0.01 0.01 88 1024.3
20210304085306 49 191 1.0 2.0 0.00 0.01 0.01 89 1024.3
20210304084532 49 255 0.0 2.0 0.00 0.01 0.01 90 1024.4
20210304084214 49 256 0.0 3.0 0.00 0.01 0.01 90 1024.4
20210304083625 48 239 2.0 3.0 0.00 0.01 0.01 90 1024.4
20210304083350 48 232 3.0 3.0 0.00 0.01 0.01 90 1024.4
20210304083105 48 209 1.0 3.0 0.00 0.01 0.01 90 1024.4
20210304082924 48 222 0.0 3.0 0.00 0.01 0.01 91 1024.4
20210304082828 48 223 1.0 3.0 0.00 0.01 0.01 90 1024.4
20210304082712 48 221 2.0 3.0 0.00 0.01 0.01 90 1024.4
20210304081848 48 220 3.0 3.0 0.00 0.01 0.01 91 1024.3
20210304081649 48 318 0.0 1.0 0.00 0.01 0.01 91 1024.9
20210304081548 48 318 1.0 1.0 0.00 0.01 0.01 91 1024.4
20210304081259 48 318 0.0 2.0 0.00 0.01 0.01 92 1024.3
20210304080934 47 318 0.0 2.0 0.00 0.01 0.01 93 1024.3
20210304080747 47 318 0.0 2.0 0.00 0.01 0.01 93 1024.3
20210304080510 47 315 1.0 3.0 0.00 0.01 0.01 93 1024.3
20210304080156 47 315 1.0 3.0 0.00 0.01 0.01 94 1024.4
20210304075919 46 313 2.0 3.0 0.00 0.01 0.01 94 1024.3
20210304075613 46 320 3.0 3.0 0.00 0.01 0.01 95 1024.3
20210304075259 45 320 0.0 2.0 0.00 0.01 0.01 94 1024.4
20210304074936 45 302 0.0 2.0 0.00 0.01 0.01 94 1024.4
20210304074612 45 301 1.0 2.0 0.00 0.01 0.01 94 1024.4
20210304074351 45 339 1.0 1.0 0.00 0.01 0.01 95 1024.4
20210304073859 44 339 0.0 1.0 0.00 0.01 0.01 95 1024.3